Weather History for Monett, MO

Change the Weather History Date:

Tuesday, February 7, 2012

  Actual Average (KJLN) Record (KJLN)
Temperature  
Mean Temperature 38 °F 38 °F  
Max Temperature 44 °F 48 °F 71 °F (1969)
Min Temperature 32 °F 27 °F 4 °F (1985)
Degree Days  
Heating Degree Days 27 27  
Month to date heating degree days 196  
Since 1 July heating degree days 2745  
Cooling Degree Days 0 0  
Month to date cooling degree days 0  
Year to date cooling degree days 0  
Moisture  
Dew Point 32 °F    
Average Humidity 79    
Maximum Humidity 100    
Minimum Humidity 61    
Precipitation  
Precipitation 0.04 in 0.07 in 0.82 in (1961)
Month to date precipitation 0.47  
Year to date precipitation 2.50  
Sea Level Pressure  
Sea Level Pressure 30.24 in    
Wind  
Wind Speed 4 mph (ENE)    
Max Wind Speed 10 mph    
Max Gust Speed -    
Visibility 10 miles    
Events Rain    
T = Trace of Precipitation, MM = Missing Value Source: NWS Daily Summary

Daily Weather History Graph

Daily Weather History Graph

Search for Another Location

Airport:

Trip Planner

Search our weather history database for the weather conditions in past years. The results will help you decide how hot, cold, wet, or windy it might be!

Date:

Astronomy

Feb. 07, 2012 Rise Set
Actual Time 7:13 AM CST 5:47 PM CST
Civil Twilight 6:46 AM CST 6:14 PM CST
Nautical Twilight 6:15 AM CST 6:45 PM CST
Astronomical Twilight 5:45 AM CST 7:15 PM CST
Moon 5:57 PM CST (2/7) 6:43 AM CST (2/7)
Length of Visible Light 11h 27m
Length of Day
10h 33m
Full, 100% of the Moon is Illuminated
Feb 7
Full
Feb 7
Full
Feb 14
Last Quarter
Feb 21
New
Feb 29
First Quarter

Hourly Weather History & Observations

Time (CST) Temp. Windchill Dew Point Humidity Pressure Visibility Wind Dir Wind Speed Gust Speed Precip Events Conditions
12:15 AM 35.6 °F 31.7 °F 28.4 °F 75% 30.21 in 10.0 mi ESE 4.6 mph - N/A   Clear
12:35 AM 35.6 °F 31.7 °F 28.4 °F 75% 30.21 in 10.0 mi East 4.6 mph - N/A   Clear
12:55 AM 35.6 °F - 28.4 °F 75% 30.21 in 10.0 mi Calm Calm - N/A   Clear
1:15 AM 33.8 °F 29.6 °F 28.4 °F 81% 30.20 in 10.0 mi ESE 4.6 mph - N/A   Clear
1:35 AM 33.8 °F 28.6 °F 28.4 °F 81% 30.20 in 10.0 mi ESE 5.8 mph - N/A   Clear
1:55 AM 35.6 °F 31.7 °F 28.4 °F 75% 30.21 in 10.0 mi ESE 4.6 mph - N/A   Clear
2:15 AM 35.6 °F 30.7 °F 28.4 °F 75% 30.21 in 10.0 mi ESE 5.8 mph - N/A   Clear
2:35 AM 32.0 °F 28.7 °F 28.4 °F 87% 30.21 in 10.0 mi ESE 3.5 mph - N/A   Clear
2:55 AM 35.6 °F 31.7 °F 28.4 °F 75% 30.21 in 10.0 mi ESE 4.6 mph - N/A   Clear
3:15 AM 33.8 °F 30.8 °F 28.4 °F 81% 30.20 in 10.0 mi ESE 3.5 mph - N/A   Clear
3:35 AM 33.8 °F - 28.4 °F 81% 30.20 in 10.0 mi Calm Calm - N/A   Clear
3:55 AM 33.8 °F 30.8 °F 28.4 °F 81% 30.20 in 10.0 mi ESE 3.5 mph - N/A   Clear
4:15 AM 32.0 °F 27.5 °F 28.4 °F 87% 30.20 in 10.0 mi East 4.6 mph - N/A   Scattered Clouds
4:35 AM 32.0 °F 26.4 °F 28.4 °F 87% 30.20 in 10.0 mi East 5.8 mph - N/A   Mostly Cloudy
4:55 AM 33.8 °F 29.6 °F 28.4 °F 81% 30.20 in 10.0 mi East 4.6 mph - N/A   Overcast
5:35 AM 35.6 °F 30.7 °F 28.4 °F 75% 30.20 in 10.0 mi East 5.8 mph - N/A   Overcast
5:55 AM 37.4 °F 32.1 °F 28.4 °F 70% 30.19 in 7.0 mi East 6.9 mph - N/A   Overcast
6:15 AM 39.2 °F 35.0 °F 28.4 °F 65% 30.19 in 7.0 mi East 5.8 mph - N/A   Overcast
6:35 AM 33.8 °F - 30.2 °F 87% 30.21 in 10.0 mi Calm Calm - N/A   Scattered Clouds
6:55 AM 33.8 °F 29.6 °F 30.2 °F 87% 30.22 in 10.0 mi SSE 4.6 mph - N/A   Clear
7:15 AM 33.8 °F 29.6 °F 30.2 °F 87% 30.23 in 10.0 mi SSE 4.6 mph - N/A   Clear
7:35 AM 33.8 °F 30.8 °F 30.2 °F 87% 30.23 in 10.0 mi SSE 3.5 mph - N/A   Clear
7:55 AM 35.6 °F 32.8 °F 30.2 °F 81% 30.23 in 10.0 mi SE 3.5 mph - N/A   Mostly Cloudy
8:15 AM 35.6 °F - 32.0 °F 87% 30.25 in 10.0 mi Calm Calm - N/A   Overcast
8:35 AM 37.4 °F - 32.0 °F 81% 30.26 in 10.0 mi Calm Calm - N/A   Overcast
8:55 AM 37.4 °F - 32.0 °F 81% 30.26 in 10.0 mi Calm Calm - N/A   Overcast
9:15 AM 37.4 °F - 33.8 °F 87% 30.26 in 10.0 mi Calm Calm - N/A   Overcast
9:35 AM 37.4 °F - 33.8 °F 87% 30.27 in 10.0 mi Calm Calm - N/A   Overcast
9:55 AM 39.2 °F 34.2 °F 32.0 °F 75% 30.27 in 10.0 mi West 6.9 mph - N/A Rain Light Rain
10:15 AM 41.0 °F 38.0 °F 32.0 °F 70% 30.28 in 7.0 mi SE 4.6 mph - 0.01 in Rain Rain
10:35 AM 41.0 °F - 32.0 °F 70% 30.27 in 10.0 mi Calm Calm - 0.02 in Rain Light Rain
10:55 AM 41.0 °F 39.0 °F 35.6 °F 81% 30.27 in 10.0 mi ESE 3.5 mph - 0.03 in Rain Light Rain
11:15 AM 41.0 °F 37.1 °F 33.8 °F 76% 30.27 in 10.0 mi East 5.8 mph - N/A   Overcast
11:35 AM 41.0 °F 38.0 °F 33.8 °F 76% 30.26 in 10.0 mi East 4.6 mph - N/A   Overcast
11:55 AM 41.0 °F 38.0 °F 35.6 °F 81% 30.25 in 10.0 mi East 4.6 mph - N/A Rain Light Rain
12:15 PM 41.0 °F 39.0 °F 35.6 °F 81% 30.25 in 10.0 mi NE 3.5 mph - N/A   Overcast
12:35 PM 42.8 °F 41.1 °F 35.6 °F 76% 30.25 in 10.0 mi North 3.5 mph - N/A   Overcast
12:55 PM 42.8 °F 41.1 °F 33.8 °F 70% 30.25 in 10.0 mi NNE 3.5 mph - N/A   Overcast
1:15 PM 42.8 °F 40.1 °F 33.8 °F 70% 30.24 in 10.0 mi NNE 4.6 mph - N/A   Overcast
1:35 PM 44.6 °F 43.1 °F 33.8 °F 66% 30.23 in 10.0 mi NE 3.5 mph - N/A   Overcast
1:55 PM 44.6 °F 43.1 °F 32.0 °F 61% 30.23 in 10.0 mi East 3.5 mph - N/A   Overcast
2:15 PM 44.6 °F 43.1 °F 32.0 °F 61% 30.23 in 10.0 mi NNE 3.5 mph - N/A   Overcast
2:35 PM 44.6 °F 43.1 °F 32.0 °F 61% 30.23 in 10.0 mi NNE 3.5 mph - N/A   Overcast
2:55 PM 44.6 °F - 32.0 °F 61% 30.23 in 10.0 mi Calm Calm - N/A   Overcast
3:15 PM 44.6 °F - 32.0 °F 61% 30.23 in 10.0 mi Calm Calm - N/A   Overcast
3:35 PM 44.6 °F 41.4 °F 32.0 °F 61% 30.24 in 10.0 mi WNW 5.8 mph - N/A   Overcast
3:55 PM 42.8 °F 38.6 °F 32.0 °F 66% 30.25 in 10.0 mi NW 6.9 mph - N/A   Drizzle
4:15 PM 42.8 °F 41.1 °F 33.8 °F 70% 30.25 in 10.0 mi WNW 3.5 mph - N/A   Drizzle
4:35 PM 42.8 °F 39.3 °F 32.0 °F 66% 30.25 in 10.0 mi NW 5.8 mph - N/A Rain Light Rain
5:15 PM 41.0 °F 38.0 °F 33.8 °F 76% 30.26 in 10.0 mi WNW 4.6 mph - N/A   Drizzle
5:35 PM 41.0 °F 35.8 °F 33.8 °F 76% 30.26 in 10.0 mi WNW 8.1 mph - N/A   Drizzle
5:55 PM 41.0 °F 35.8 °F 35.6 °F 81% 30.27 in 10.0 mi NW 8.1 mph - N/A   Drizzle
6:15 PM 39.2 °F 34.2 °F 35.6 °F 87% 30.27 in 10.0 mi NW 6.9 mph - N/A Rain Rain
6:35 PM 39.2 °F 34.2 °F 37.4 °F 93% 30.27 in 10.0 mi NNW 6.9 mph - N/A Rain Rain
7:15 PM 37.4 °F 32.8 °F 37.4 °F 100% 30.27 in 10.0 mi NW 5.8 mph - N/A Rain Light Rain
7:35 PM 37.4 °F 33.8 °F 37.4 °F 100% 30.29 in 7.0 mi NW 4.6 mph - 0.01 in Rain Light Rain
7:55 PM 37.4 °F 32.8 °F 37.4 °F 100% 30.30 in 5.0 mi NW 5.8 mph - 0.01 in Rain Rain
8:15 PM 37.4 °F 32.1 °F 37.4 °F 100% 30.31 in 7.0 mi NW 6.9 mph - N/A Rain Rain
8:35 PM 37.4 °F 30.3 °F 37.4 °F 100% 30.31 in 7.0 mi NW 10.4 mph - N/A Rain Rain
8:55 PM 37.4 °F 31.4 °F 35.6 °F 93% 30.32 in 7.0 mi NNW 8.1 mph - 0.01 in   Drizzle
9:15 PM 37.4 °F 33.8 °F 35.6 °F 93% 30.32 in 7.0 mi NNW 4.6 mph - N/A   Drizzle
9:35 PM 37.4 °F 31.4 °F 35.6 °F 93% 30.32 in 7.0 mi NNW 8.1 mph - N/A   Drizzle
9:55 PM 37.4 °F 32.1 °F 35.6 °F 93% 30.33 in 7.0 mi North 6.9 mph - N/A   Drizzle
10:15 PM 37.4 °F 31.4 °F 35.6 °F 93% 30.34 in 7.0 mi NNW 8.1 mph - N/A   Overcast
10:35 PM 35.6 °F 29.2 °F 35.6 °F 100% 30.34 in 5.0 mi NNW 8.1 mph - N/A   Light Drizzle
10:55 PM 35.6 °F 29.2 °F 35.6 °F 100% 30.35 in 5.0 mi NNW 8.1 mph - N/A   Overcast
11:15 PM 35.6 °F 29.9 °F 35.6 °F 100% 30.35 in 4.0 mi NNW 6.9 mph - N/A   Light Drizzle
11:35 PM 35.6 °F 29.2 °F 35.6 °F 100% 30.35 in 3.0 mi NNW 8.1 mph - N/A   Overcast
11:55 PM 35.6 °F 28.6 °F 35.6 °F 100% 30.35 in 3.0 mi NNW 9.2 mph - N/A   Overcast